Location: Barrialito
(10.1025°N, 66.8154°W)
Time: 23:44:23
(UTC+00:00)

ISS - Visible Passes

Search period start: 08 November 2024 00:00
Search period end: 18 November 2024 00:00
Orbit: 406 x 419 km, 51.6° (Epoch: 08 November)

Date Brightness Start Highest point End Pass type
(mag) Time Alt. Az. Time Alt. Az. Time Alt. Az.
08 Nov -2.5 09:40:43 10° NNW 09:43:47 37° NE 09:46:51 10° ESE visible
08 Nov -3.8 22:56:32 10° SW 22:59:52 84° NW 23:01:46 24° NNE visible
09 Nov -1.2 08:52:43 13° NNE 08:54:07 16° NE 08:56:15 10° E visible
10 Nov -3.2 09:38:40 16° WNW 09:40:56 38° SW 09:44:00 10° SSE visible
10 Nov -1.2 22:54:39 10° W 22:57:02 18° NW 22:59:23 10° N visible
11 Nov -3.4 08:51:43 60° ESE 08:51:43 60° ESE 08:54:30 10° SE visible
13 Nov -1.0 08:50:25 11° S 08:50:25 11° S 08:50:37 10° S visible
